Weather in Srednekolymsk

Russia / Sakha (Yakutia) Republic     67°27′29″N   153°42′25″E
temp.,
°C
wind,
m/s
gust,
m/s
humid.,
%
clouds,
%
prec.,
mm/h
press.,
hPa
HPBL,
m
18 august, thu
thu1823:00+12se3572100 0.0 999105
02:00+12ese4775100 0.0 999190
05:00+11ese3472100 0.0 99982
08:00+13sse1266100 0.0 999172
11:00+15se1259100 0.0 999631
14:00+17se3355100 0.0 999872
17:00+18s2350100 0.0 9991232
20:00+15s356398 0.0 1000193
19 august, fri
fri1923:00+14sse2267100 0.0 100124
02:00+14se346999 0.0 100167
05:00+11se512753 0.0 1002254
08:00+15sse68575 0.0 1002491
11:00+19sse66468 0.0 10021180
14:00+20sse664395 0.0 10011304
17:00+22se464063 0.0 10011923
20:00+19se61149100 0.0 1001411
20 august, sat
sat2023:00+17se6115797 0.0 1001296
02:00+14ese5106563 0.0 1000192
05:00+13ese346945 0.0 100069
08:00+18se585273 0.0 1000376
11:00+20sse684690 0.0 1000664
14:00+22sse6641100 0.0 10001344
17:00+23sse454174 0.0 10001621
20:00+18s4858100 0.0 1001298
21 august, sun
sun2123:00+16ese376395 0.0 1002157
02:00+13ese227761 0.0 100219
05:00+15ese2366100 0.0 100337
08:00+17se356092 0.0 1003199
11:00+22sse4443100 0.0 1004986
14:00+24se4537100 0.0 10032050
17:00+23se6636100 0.0 10031757
20:00+20se6104693 0.0 1003397
22 august, mon
mon2223:00+18ese4854100 0.0 1003161
02:00+17se4758100 0.0 1003143
05:00+15se3367100 0.0 100328
08:00+19s475468 0.0 1003333
11:00+18s5958100 0.0 1004444
14:00+17sse5968100 0.0 1005460
17:00+16sse5873100 0.0 1005441
20:00+16se3672100 0.0 1005166